This demonstration page uses our WeatherBlox Daily Observations layout. Learn more.

Left ArrowRight Arrow

Hourly Observations for August 3, 2018

Temp ( °F °C ) Dew Point ( °F °C ) Humidity (%) Winds ( mph kmh ) Pressure ( in mb ) Visibility ( mi km ) Precip ( " mm )
12:59 am 00:59 Mostly Clear 76 24.4 73 22.8 91 91 S 5 7 30.17 1022 10 16 0.00 0.00
1:59 am 01:59 Mostly Clear 76 24.4 73 22.8 91 91 S 5 7 30.17 1022 10 16 0.00 0.00
2:59 am 02:59 Partly Cloudy 77 25 74 23.3 90 90 SSW 5 7 30.17 1022 9 14 0.00 0.00
3:59 am 03:59 Partly Cloudy 77 25 74 23.3 90 90 SSW 7 11 30.16 1021 10 16 0.00 0.00
4:59 am 04:59 Partly Cloudy 76 24.4 74 23.3 94 94 S 6 9 30.17 1022 9 14 0.00 0.00
5:59 am 05:59 Mostly Cloudy 76 24.4 74 23.3 94 94 S 5 7 30.18 1022 9 14 0.00 0.00
6:59 am 06:59 Partly Cloudy 77 25 75 23.9 94 94 S 3 6 30.19 1023 8 13 0.00 0.00
7:52 am 07:52 Mostly Cloudy with Light Rain 78 25.6 74 23.3 87 87 S 15 24 30.21 1023 7 11 0.00 0.03
7:59 am 07:59 Mostly Cloudy with Rain 76 24.4 73 22.8 91 91 SSW 8 13 30.20 1023 3 5 0.03 0.76
8:59 am 08:59 Partly Cloudy 77 25 70 21.1 79 79 SW 10 17 30.22 1023 10 16 0.00 0.03
9:59 am 09:59 Partly Cloudy 79 26.1 71 21.7 77 77 VRB 5 7 30.20 1023 10 16 0.00 0.00
10:59 am 10:59 Mostly Cloudy 81 27.2 73 22.8 77 77 SSW 7 11 30.20 1023 10 16 0.00 0.00
11:59 am 11:59 Mostly Cloudy 83 28.3 72 22.2 70 70 SSW 13 20 30.20 1023 10 16 0.00 0.00
12:59 pm 12:59 Mostly Cloudy 83 28.3 72 22.2 70 70 VRB 7 11 30.20 1023 10 16 0.00 0.00
1:59 pm 13:59 Mostly Cloudy 83 28.3 71 21.7 67 67 S 7 11 30.19 1022 10 16 0.00 0.00
2:59 pm 14:59 Mostly Cloudy 86 30 70 21.1 59 59 SW 10 17 30.17 1022 10 16 0.00 0.00
3:59 pm 15:59 Mostly Cloudy 84 28.9 72 22.2 67 67 VRB 7 11 30.16 1021 10 16 0.00 0.03
4:59 pm 16:59 Mostly Cloudy 83 28.3 71 21.7 67 67 S 7 11 30.16 1021 10 16 0.00 0.00
5:59 pm 17:59 Mostly Cloudy 82 27.8 71 21.7 69 69 S 10 17 30.15 1021 10 16 0.00 0.00
6:07 pm 18:07 Mostly Cloudy with Light Rain 78 25.6 69 20.6 74 74 S 13 20 30.15 1021 3 4 0.04 1.02
6:13 pm 18:13 Mostly Cloudy with Light Rain 76 24.4 69 20.6 79 79 VRB 6 9 30.15 1021 5 8 0.05 1.27
6:59 pm 18:59 Mostly Cloudy 79 26.1 72 22.2 79 79 SSW 6 9 30.15 1021 10 16 0.05 1.27
7:59 pm 19:59 Mostly Cloudy 79 26.1 71 21.7 77 77 VRB 5 7 30.15 1021 10 16 0.00 0.00
8:59 pm 20:59 Mostly Cloudy 79 26.1 70 21.1 74 74 SSW 9 15 30.15 1021 10 16 0.00 0.00
9:21 pm 21:21 Mostly Cloudy 78 25.6 70 21.1 76 76 S 13 20 30.15 1021 10 16 0.00 0.00
9:47 pm 21:47 Mostly Cloudy 77 25 70 21.1 79 79 SSW 6 9 30.18 1022 10 16 0.00 0.00
9:59 pm 21:59 Mostly Cloudy 77 25 70 21.1 79 79 SSW 7 11 30.17 1022 10 16 0.00 0.00
10:59 pm 22:59 Mostly Cloudy 76 24.4 69 20.6 79 79 S 8 13 30.16 1022 10 16 0.00 0.00
11:59 pm 23:59 Mostly Cloudy 76 24.4 69 20.6 79 79 S 5 7 30.17 1022 10 16 0.00 0.00

Powered by AerisWeather